CQ0XBF-11 Weather Reports


time (UTC)temp
C
wind
direction
speed
KPH
gust
KPH
rain 1hr
cm
rain 24hr
cm
rain mn
cm
humidity
%
barometer
mb
20181215023500 0 156 3.2 6.4 0.00 0.00 0.00 96 1024.0
20181215023258 0 158 4.8 8.0 0.00 0.00 0.00 96 1023.9
20181215023056 0 149 3.2 8.0 0.00 0.00 0.00 96 1023.9
20181215022855 0 165 4.8 11.3 0.00 0.00 0.00 96 1023.9
20181215022653 0 160 3.2 11.3 0.00 0.00 0.00 96 1023.8
20181215022452 0 172 6.4 11.3 0.00 0.00 0.00 96 1023.9
20181215022250 0 149 3.2 8.0 0.00 0.00 0.00 96 1023.8
20181215022049 0 151 8.0 8.0 0.00 0.00 0.00 96 1023.8
20181215021847 0 170 4.8 8.0 0.00 0.00 0.00 96 1023.8
20181215021646 0 147 6.4 8.0 0.00 0.00 0.00 96 1023.8
20181215021444 0 160 1.6 8.0 0.00 0.00 0.00 96 1023.8
20181215021243 0 161 4.8 9.7 0.00 0.00 0.00 96 1023.8
20181215021041 -1 125 6.4 9.7 0.00 0.00 0.00 96 1023.8
20181215020638 -1 174 3.2 11.3 0.00 0.00 0.00 96 1023.7
20181215020436 -2 146 4.8 11.3 0.00 0.00 0.00 96 1023.7
20181215020235 -1 154 3.2 9.7 0.00 0.00 0.00 96 1023.8
20181215020033 -1 163 4.8 9.7 0.00 0.00 0.00 96 1023.8
20181215015832 -1 160 4.8 8.0 0.00 0.00 0.00 96 1023.8
20181215015630 -1 151 4.8 8.0 0.00 0.00 0.00 96 1023.8
20181215015428 -1 157 4.8 8.0 0.00 0.00 0.00 96 1023.8
20181215015227 0 144 3.2 6.4 0.00 0.00 0.00 96 1023.9
20181215015025 0 132 4.8 6.4 0.00 0.00 0.00 96 1023.9
20181215014824 0 142 3.2 6.4 0.00 0.00 0.00 96 1023.9
20181215014622 0 163 4.8 6.4 0.00 0.00 0.00 96 1023.9
20181215014421 0 147 1.6 3.2 0.00 0.00 0.00 96 1023.9
20181215014219 0 163 3.2 3.2 0.00 0.00 0.00 96 1024.0
20181215014018 0 125 0.0 3.2 0.00 0.00 0.00 96 1024.0
20181215013816 0 147 0.0 3.2 0.00 0.00 0.00 96 1024.1
20181215013615 0 147 0.0 3.2 0.00 0.00 0.00 95 1024.0
20181215013413 0 104 0.0 3.2 0.00 0.00 0.00 95 1024.0
20181215013211 0 142 0.0 3.2 0.00 0.00 0.00 95 1024.0
20181215013010 0 188 0.0 3.2 0.00 0.00 0.00 95 1024.0
20181215012807 0 188 0.0 6.4 0.00 0.00 0.00 95 1024.0
20181215012606 0 135 1.6 6.4 0.00 0.00 0.00 95 1024.0
20181215012404 0 146 1.6 8.0 0.00 0.00 0.00 95 1024.0
20181215012202 0 163 3.2 8.0 0.00 0.00 0.00 95 1024.1
20181215012001 0 174 3.2 8.0 0.00 0.00 0.00 95 1024.0
20181215011759 0 184 1.6 6.4 0.00 0.00 0.00 95 1024.0
20181215011558 0 178 4.8 6.4 0.00 0.00 0.00 95 1024.0
20181215011356 0 189 1.6 6.4 0.00 0.00 0.00 95 1024.1
20181215011155 0 192 1.6 6.4 0.00 0.00 0.00 95 1024.2
20181215010953 0 175 3.2 6.4 0.00 0.00 0.00 95 1024.2
20181215010751 0 188 3.2 6.4 0.00 0.00 0.00 95 1024.2
20181215010549 0 168 6.4 6.4 0.00 0.00 0.00 95 1024.2
20181215010348 0 156 1.6 4.8 0.00 0.00 0.00 95 1024.2
20181215010146 0 165 3.2 4.8 0.00 0.00 0.00 95 1024.2
20181215005945 0 187 1.6 4.8 0.00 0.00 0.00 95 1024.4
20181215005743 0 164 0.0 0.0 0.00 0.00 0.00 95 1024.4
20181215005541 0 192 0.0 0.0 0.00 0.00 0.00 95 1024.4
20181215005340 0 192 0.0 4.8 0.00 0.00 0.00 95 1024.5
20181215005138 0 210 0.0 4.8 0.00 0.00 0.00 95 1024.5
20181215004936 0 210 0.0 4.8 0.00 0.00 0.00 95 1024.6
20181215004735 0 210 0.0 1.6 0.00 0.00 0.00 95 1024.6
20181215004533 1 237 1.6 1.6 0.00 0.00 0.00 95 1024.6
20181215004332 0 191 0.0 4.8 0.00 0.00 0.00 95 1024.6
20181215004130 0 191 0.0 4.8 0.00 0.00 0.00 95 1024.5
20181215003929 1 250 1.6 4.8 0.00 0.00 0.00 95 1024.5
20181215003727 0 153 0.0 4.8 0.00 0.00 0.00 95 1024.5
20181215003526 0 199 0.0 4.8 0.00 0.00 0.00 95 1024.5
20181215003324 0 216 0.0 6.4 0.00 0.00 0.00 95 1024.6
20181215003123 0 205 1.6 6.4 0.00 0.00 0.00 95 1024.6
20181215002921 0 244 0.0 8.0 0.00 0.00 0.00 95 1024.5
20181215002720 0 215 3.2 8.0 0.00 0.00 0.00 95 1024.5
20181215002518 0 220 4.8 8.0 0.00 0.00 0.00 95 1024.5
20181215002316 0 199 6.4 8.0 0.00 0.00 0.00 95 1024.5
20181215002115 0 209 4.8 8.0 0.00 0.00 0.00 95 1024.5
20181215001914 0 223 8.0 9.7 0.00 0.00 0.00 95 1024.4
20181215001712 0 194 6.4 9.7 0.00 0.00 0.00 95 1024.4
20181215001510 0 210 6.4 9.7 0.00 0.00 0.00 95 1024.4
20181215001308 0 191 4.8 9.7 0.00 0.00 0.00 95 1024.2
20181215001107 0 174 4.8 9.7 0.00 0.00 0.00 95 1024.2
20181215000905 0 199 6.4 9.7 0.00 0.00 0.00 95 1024.1
20181215000704 0 165 4.8 9.7 0.00 0.00 0.00 95 1024.1
20181215000503 0 164 6.4 9.7 0.00 0.00 0.00 95 1024.1
20181215000301 0 177 6.4 9.7 0.00 0.00 0.00 95 1024.1
20181215000059 0 143 6.4 9.7 0.00 0.00 0.00 95 1024.1
20181214235858 0 171 4.8 9.7 0.00 0.00 0.00 95 1024.1
20181214235656 0 165 6.4 9.7 0.00 0.00 0.00 95 1024.2
20181214235455 0 199 4.8 9.7 0.00 0.00 0.00 95 1024.4
20181214235253 0 178 4.8 9.7 0.00 0.00 0.00 95 1024.4
20181214235051 0 177 3.2 9.7 0.00 0.00 0.00 95 1024.4
20181214234850 0 184 4.8 9.7 0.00 0.00 0.00 94 1024.5
20181214234648 0 212 4.8 9.7 0.00 0.00 0.00 95 1024.4
20181214234447 0 195 4.8 9.7 0.00 0.00 0.00 94 1024.5
20181214234245 0 150 4.8 11.3 0.00 0.00 0.00 94 1024.4
20181214234043 0 189 6.4 11.3 0.00 0.00 0.00 94 1024.4
20181214233842 0 188 4.8 9.7 0.00 0.00 0.00 94 1024.4
20181214233640 0 202 8.0 9.7 0.00 0.00 0.00 94 1024.5
20181214233439 0 210 4.8 9.7 0.00 0.00 0.00 94 1024.5
20181214233237 0 202 8.0 9.7 0.00 0.00 0.00 93 1024.5
20181214233036 0 198 4.8 9.7 0.00 0.00 0.00 93 1024.5
20181214232834 0 180 4.8 9.7 0.00 0.00 0.00 93 1024.5
20181214232633 0 172 6.4 9.7 0.00 0.00 0.00 93 1024.6
20181214232431 0 198 8.0 9.7 0.00 0.00 0.00 93 1024.5
20181214232230 0 177 6.4 6.4 0.00 0.00 0.00 93 1024.6
20181214232028 0 202 3.2 6.4 0.00 0.00 0.00 93 1024.7
20181214231827 0 161 3.2 8.0 0.00 0.00 0.00 93 1024.7
20181214231625 0 217 3.2 8.0 0.00 0.00 0.00 92 1024.7
20181214231423 -1 208 3.2 8.0 0.00 0.00 0.00 92 1024.6
20181214231222 -2 222 3.2 8.0 0.00 0.00 0.00 92 1024.6
20181214231020 -2 196 4.8 8.0 0.00 0.00 0.00 92 1024.6
20181214230818 -1 210 6.4 8.0 0.00 0.00 0.00 92 1024.6
20181214230617 -1 220 6.4 8.0 0.00 0.00 0.00 92 1024.6
20181214230415 -1 182 6.4 8.0 0.00 0.00 0.00 92 1024.6
20181214230214 -1 230 3.2 8.0 0.00 0.00 0.00 92 1024.6
20181214230012 0 229 3.2 8.0 0.00 0.00 0.00 92 1024.6
20181214225811 -1 182 4.8 6.4 0.00 0.00 0.00 92 1024.6
20181214225609 -1 217 4.8 6.4 0.00 0.00 0.00 92 1024.6
20181214225408 -1 212 3.2 8.0 0.00 0.00 0.00 91 1024.6
20181214225206 -1 206 3.2 8.0 0.00 0.00 0.00 91 1024.6
20181214225005 -1 198 4.8 8.0 0.00 0.00 0.00 91 1024.5
20181214224803 -1 188 6.4 6.4 0.00 0.00 0.00 91 1024.6
20181214224602 0 205 4.8 6.4 0.00 0.00 0.00 91 1024.6
20181214224400 0 205 4.8 6.4 0.00 0.00 0.00 91 1024.6
20181214224158 0 225 3.2 6.4 0.00 0.00 0.00 91 1024.6
20181214223957 0 181 3.2 6.4 0.00 0.00 0.00 90 1024.7
20181214223755 0 177 3.2 8.0 0.00 0.00 0.00 90 1024.7
20181214223553 0 157 3.2 8.0 0.00 0.00 0.00 90 1024.7
20181214223352 0 198 4.8 6.4 0.00 0.00 0.00 90 1024.6
20181214223150 0 185 1.6 6.4 0.00 0.00 0.00 90 1024.6
20181214222949 0 191 3.2 6.4 0.00 0.00 0.00 90 1024.6
20181214222747 0 180 3.2 8.0 0.00 0.00 0.00 90 1024.6
20181214222546 0 187 3.2 8.0 0.00 0.00 0.00 90 1024.7
20181214222344 0 188 1.6 4.8 0.00 0.00 0.00 90 1024.7
20181214222143 0 213 1.6 4.8 0.00 0.00 0.00 90 1024.8
20181214221941 0 220 4.8 4.8 0.00 0.00 0.00 90 1024.8
20181214221740 0 212 3.2 6.4 0.00 0.00 0.00 90 1024.8
20181214221538 0 232 1.6 6.4 0.00 0.00 0.00 90 1024.7
20181214221337 0 187 1.6 6.4 0.00 0.00 0.00 90 1024.7
20181214221135 0 233 1.6 6.4 0.00 0.00 0.00 90 1024.7
20181214220933 0 209 1.6 6.4 0.00 0.00 0.00 90 1024.6
20181214220732 0 206 1.6 4.8 0.00 0.00 0.00 89 1024.6
20181214220530 0 209 3.2 4.8 0.00 0.00 0.00 89 1024.6
20181214220329 0 216 3.2 4.8 0.00 0.00 0.00 89 1024.6
20181214220127 0 203 1.6 4.8 0.00 0.00 0.00 89 1024.6
20181214215925 0 208 3.2 4.8 0.00 0.00 0.00 89 1024.6
20181214215724 0 191 3.2 4.8 0.00 0.00 0.00 89 1024.6
20181214215522 1 185 0.0 4.8 0.00 0.00 0.00 89 1024.6
20181214215321 1 194 1.6 4.8 0.00 0.00 0.00 89 1024.6
20181214215119 0 178 3.2 4.8 0.00 0.00 0.00 89 1024.6
20181214214918 0 184 3.2 4.8 0.00 0.00 0.00 89 1024.6
20181214214716 0 191 3.2 4.8 0.00 0.00 0.00 88 1024.7
20181214214515 0 158 1.6 4.8 0.00 0.00 0.00 88 1024.6
20181214214313 0 129 0.0 4.8 0.00 0.00 0.00 88 1024.5
20181214214112 0 129 0.0 4.8 0.00 0.00 0.00 88 1024.5
20181214213910 0 160 1.6 6.4 0.00 0.00 0.00 88 1024.4
20181214213709 1 160 3.2 6.4 0.00 0.00 0.00 88 1024.4
20181214213507 0 160 3.2 6.4 0.00 0.00 0.00 88 1024.4
20181214213306 0 153 3.2 6.4 0.00 0.00 0.00 87 1024.4
20181214213104 0 108 1.6 6.4 0.00 0.00 0.00 87 1024.4
20181214212902 0 161 4.8 6.4 0.00 0.00 0.00 87 1024.4
20181214212701 0 180 3.2 6.4 0.00 0.00 0.00 87 1024.4
20181214212459 0 174 4.8 6.4 0.00 0.00 0.00 87 1024.2
20181214212257 1 172 4.8 6.4 0.00 0.00 0.00 87 1024.2
20181214212056 1 177 4.8 6.4 0.00 0.00 0.00 87 1024.2
20181214211854 1 188 4.8 8.0 0.00 0.00 0.00 87 1024.4
20181214211653 1 188 3.2 8.0 0.00 0.00 0.00 87 1024.4
20181214211451 1 194 3.2 8.0 0.00 0.00 0.00 87 1024.4
20181214211249 1 202 1.6 8.0 0.00 0.00 0.00 86 1024.5
20181214211047 1 181 3.2 8.0 0.00 0.00 0.00 87 1024.4
20181214210846 1 220 3.2 6.4 0.00 0.00 0.00 87 1024.4
20181214210644 1 219 6.4 6.4 0.00 0.00 0.00 86 1024.4
20181214210443 1 230 6.4 6.4 0.00 0.00 0.00 86 1024.4
20181214210241 1 199 1.6 8.0 0.00 0.00 0.00 86 1024.5
20181214210039 1 217 3.2 8.0 0.00 0.00 0.00 86 1024.5
20181214205838 1 208 8.0 8.0 0.00 0.00 0.00 86 1024.5
20181214205636 1 226 4.8 8.0 0.00 0.00 0.00 86 1024.5
20181214205435 1 241 3.2 8.0 0.00 0.00 0.00 86 1024.5
20181214205233 1 213 3.2 8.0 0.00 0.00 0.00 86 1024.5
20181214205031 1 213 4.8 8.0 0.00 0.00 0.00 86 1024.4
20181214204830 1 226 3.2 6.4 0.00 0.00 0.00 86 1024.4
20181214204628 1 226 1.6 6.4 0.00 0.00 0.00 86 1024.4
20181214204427 1 185 4.8 6.4 0.00 0.00 0.00 85 1024.1
20181214204225 1 178 3.2 6.4 0.00 0.00 0.00 85 1024.2
20181214204024 1 171 4.8 6.4 0.00 0.00 0.00 85 1024.2
20181214203822 1 180 3.2 8.0 0.00 0.00 0.00 85 1024.2
20181214203621 1 189 3.2 8.0 0.00 0.00 0.00 85 1024.2
20181214203419 1 216 4.8 8.0 0.00 0.00 0.00 85 1024.1
20181214203218 1 163 3.2 8.0 0.00 0.00 0.00 85 1024.1
20181214203016 1 168 3.2 8.0 0.00 0.00 0.00 85 1024.1
20181214202815 1 180 3.2 9.7 0.00 0.00 0.00 85 1024.1
20181214202613 1 182 3.2 9.7 0.00 0.00 0.00 85 1024.1
20181214202412 0 180 8.0 8.0 0.00 0.00 0.00 84 1024.0
20181214202210 0 170 4.8 8.0 0.00 0.00 0.00 84 1024.1
20181214202008 0 172 8.0 8.0 0.00 0.00 0.00 84 1024.0
20181214201806 0 149 6.4 9.7 0.00 0.00 0.00 84 1024.0
20181214201605 0 171 4.8 9.7 0.00 0.00 0.00 84 1024.0
20181214201403 0 168 4.8 8.0 0.00 0.00 0.00 84 1024.0
20181214201202 0 185 6.4 8.0 0.00 0.00 0.00 84 1024.0
20181214201000 0 180 6.4 8.0 0.00 0.00 0.00 83 1024.1
20181214200759 0 157 4.8 6.4 0.00 0.00 0.00 83 1024.0
20181214200557 0 198 4.8 6.4 0.00 0.00 0.00 83 1024.1
20181214200356 0 177 4.8 6.4 0.00 0.00 0.00 83 1024.1
20181214200154 0 168 4.8 6.4 0.00 0.00 0.00 83 1024.0
20181214195953 0 171 3.2 6.4 0.00 0.00 0.00 83 1024.0
20181214195751 0 182 4.8 4.8 0.00 0.00 0.00 83 1024.0
20181214195550 0 167 1.6 4.8 0.00 0.00 0.00 83 1024.1
20181214195348 0 191 0.0 6.4 0.00 0.00 0.00 82 1024.2
20181214195147 0 196 3.2 6.4 0.00 0.00 0.00 82 1024.2
20181214194945 0 160 1.6 6.4 0.00 0.00 0.00 82 1024.1
20181214194743 0 167 4.8 6.4 0.00 0.00 0.00 82 1024.1
20181214194541 0 164 1.6 6.4 0.00 0.00 0.00 82 1024.1
20181214194339 0 189 4.8 4.8 0.00 0.00 0.00 82 1024.1
20181214194137 0 158 1.6 4.8 0.00 0.00 0.00 82 1024.1
20181214193936 0 199 4.8 4.8 0.00 0.00 0.00 82 1024.0
20181214193734 -1 188 1.6 6.4 0.00 0.00 0.00 82 1024.0
20181214193533 -3 196 1.6 6.4 0.00 0.00 0.00 82 1024.1
20181214193331 -6 255 4.8 6.4 0.00 0.00 0.00 82 1024.2
20181214193130 -2 182 1.6 6.4 0.00 0.00 0.00 81 1024.2
20181214192928 -1 203 3.2 6.4 0.00 0.00 0.00 81 1024.2
20181214192727 -2 191 3.2 6.4 0.00 0.00 0.00 81 1024.4
20181214192525 -2 187 1.6 6.4 0.00 0.00 0.00 81 1024.2
20181214192324 -1 226 3.2 8.0 0.00 0.00 0.00 81 1024.4
20181214192122 -1 212 3.2 8.0 0.00 0.00 0.00 81 1024.4
20181214191921 0 205 1.6 4.8 0.00 0.00 0.00 81 1024.4
20181214191719 0 217 3.2 4.8 0.00 0.00 0.00 81 1024.5
20181214191517 0 223 4.8 4.8 0.00 0.00 0.00 80 1024.5
20181214191316 -1 225 3.2 6.4 0.00 0.00 0.00 80 1024.5
20181214191114 0 213 1.6 6.4 0.00 0.00 0.00 80 1024.5
20181214190912 -1 213 3.2 4.8 0.00 0.00 0.00 80 1024.5
20181214190711 0 171 0.0 4.8 0.00 0.00 0.00 80 1024.5
20181214190509 0 164 1.6 4.8 0.00 0.00 0.00 80 1024.5
20181214190308 0 229 3.2 4.8 0.00 0.00 0.00 80 1024.4
20181214190107 0 196 1.6 4.8 0.00 0.00 0.00 80 1024.4
20181214185905 0 216 0.0 3.2 0.00 0.00 0.00 79 1024.4
20181214185703 0 240 1.6 3.2 0.00 0.00 0.00 79 1024.4
20181214185502 0 203 0.0 3.2 0.00 0.00 0.00 79 1024.4
20181214185300 0 178 0.0 3.2 0.00 0.00 0.00 79 1024.2
20181214185059 -1 209 1.6 3.2 0.00 0.00 0.00 79 1024.2
20181214184857 -1 203 1.6 4.8 0.00 0.00 0.00 78 1024.2
20181214184656 0 220 3.2 4.8 0.00 0.00 0.00 78 1024.1
20181214184454 -1 250 0.0 4.8 0.00 0.00 0.00 78 1024.1
20181214184253 -1 196 0.0 4.8 0.00 0.00 0.00 78 1024.1
20181214184051 0 220 1.6 4.8 0.00 0.00 0.00 78 1024.1
20181214183849 0 226 1.6 6.4 0.00 0.00 0.00 78 1024.1
20181214183647 -1 236 3.2 6.4 0.00 0.00 0.00 78 1024.1
20181214183446 -1 229 1.6 6.4 0.00 0.00 0.00 78 1024.1
20181214183244 -4 230 0.0 6.4 0.00 0.00 0.00 78 1024.1
20181214183043 -5 232 3.2 6.4 0.00 0.00 0.00 77 1024.1
20181214182841 -6 222 4.8 4.8 0.00 0.00 0.00 77 1024.0
20181214182640 -4 226 1.6 4.8 0.00 0.00 0.00 77 1024.0
20181214182438 -4 216 3.2 4.8 0.00 0.00 0.00 77 1024.0
20181214182237 -3 178 0.0 4.8 0.00 0.00 0.00 77 1023.9
20181214182035 -3 192 0.0 4.8 0.00 0.00 0.00 77 1023.9
20181214181834 -2 194 1.6 4.8 0.00 0.00 0.00 76 1023.9
20181214181632 -2 223 4.8 4.8 0.00 0.00 0.00 76 1023.9
20181214181431 -2 232 3.2 4.8 0.00 0.00 0.00 76 1023.9
20181214181229 -1 217 3.2 4.8 0.00 0.00 0.00 76 1023.9
20181214181028 -1 219 3.2 4.8 0.00 0.00 0.00 76 1023.9
20181214180826 -2 213 0.0 4.8 0.00 0.00 0.00 76 1023.9
20181214180625 -1 233 3.2 4.8 0.00 0.00 0.00 76 1023.9
20181214180423 -1 178 1.6 4.8 0.00 0.00 0.00 75 1023.8
20181214180222 -3 196 1.6 4.8 0.00 0.00 0.00 75 1023.8
20181214175818 -2 210 1.6 4.8 0.00 0.00 0.00 74 1023.8
20181214175616 -3 205 0.0 4.8 0.00 0.00 0.00 74 1023.9
20181214175415 -3 206 1.6 4.8 0.00 0.00 0.00 74 1023.8
20181214175213 -2 171 0.0 4.8 0.00 0.00 0.00 74 1023.9
20181214175012 -2 213 1.6 4.8 0.00 0.00 0.00 74 1023.9
20181214174810 -3 187 1.6 3.2 0.00 0.00 0.00 73 1023.9
20181214174609 -2 227 3.2 3.2 0.00 0.00 0.00 74 1023.8
20181214174407 -2 195 0.0 1.6 0.00 0.00 0.00 73 1023.8
20181214174206 -1 237 0.0 1.6 0.00 0.00 0.00 73 1023.8
20181214174004 -1 227 0.0 1.6 0.00 0.00 0.00 73 1023.8
20181214173803 -1 227 0.0 1.6 0.00 0.00 0.00 73 1023.8
20181214173601 -2 230 0.0 1.6 0.00 0.00 0.00 73 1023.8
20181214173359 -6 230 0.0 1.6 0.00 0.00 0.00 73 1023.8
20181214173158 -3 230 0.0 1.6 0.00 0.00 0.00 73 1023.7
20181214172956 -3 220 0.0 1.6 0.00 0.00 0.00 73 1023.8
20181214172754 -2 236 0.0 6.4 0.00 0.00 0.00 73 1023.7
20181214172553 -2 272 0.0 6.4 0.00 0.00 0.00 73 1023.8
20181214172351 -1 277 0.0 3.2 0.00 0.00 0.00 73 1023.7
20181214172150 0 298 0.0 3.2 0.00 0.00 0.00 72 1023.6
20181214171948 -1 244 0.0 3.2 0.00 0.00 0.00 72 1023.6
20181214171747 -1 277 0.0 4.8 0.00 0.00 0.00 72 1023.6
20181214171545 0 272 0.0 4.8 0.00 0.00 0.00 72 1023.6
20181214171344 -1 262 0.0 4.8 0.00 0.00 0.00 72 1023.5
20181214171142 -1 275 1.6 4.8 0.00 0.00 0.00 72 1023.5
20181214170941 0 258 1.6 4.8 0.00 0.00 0.00 71 1023.5
20181214170739 -1 289 3.2 6.4 0.00 0.00 0.00 71 1023.5
20181214170538 -1 240 0.0 6.4 0.00 0.00 0.00 71 1023.5
20181214170336 0 296 3.2 9.7 0.00 0.00 0.00 71 1023.4
20181214170134 -1 275 0.0 9.7 0.00 0.00 0.00 70 1023.4
20181214165933 -1 310 0.0 9.7 0.00 0.00 0.00 70 1023.5
20181214165731 -1 271 1.6 8.0 0.00 0.00 0.00 69 1023.5
20181214165529 0 248 3.2 8.0 0.00 0.00 0.00 69 1023.5
20181214165328 0 291 8.0 8.0 0.00 0.00 0.00 69 1023.4
20181214165127 -1 286 3.2 8.0 0.00 0.00 0.00 69 1023.5
20181214164925 -3 288 3.2 8.0 0.00 0.00 0.00 69 1023.5
20181214164723 -1 302 3.2 9.7 0.00 0.00 0.00 69 1023.4
20181214164522 -5 262 3.2 9.7 0.00 0.00 0.00 68 1023.5
20181214164319 -4 255 4.8 6.4 0.00 0.00 0.00 68 1023.6
20181214164118 -6 307 8.0 6.4 0.00 0.00 0.00 67 1023.6
20181214163916 -6 271 1.6 6.4 0.00 0.00 0.00 67 1023.6
20181214163715 -9 285 1.6 6.4 0.00 0.00 0.00 66 1023.6
20181214163513 -7 306 4.8 6.4 0.00 0.00 0.00 66 1023.6
20181214163312 -10 300 6.4 8.0 0.00 0.00 0.00 66 1023.6
20181214163110 -11 310 3.2 8.0 0.00 0.00 0.00 66 1023.6
20181214162908 12 309 4.8 6.4 0.00 0.00 0.00 65 1023.6
20181214162707 12 326 4.8 6.4 0.00 0.00 0.00 65 1023.6
20181214162505 12 323 1.6 6.4 0.00 0.00 0.00 64 1023.5
20181214162304 12 288 3.2 9.7 0.00 0.00 0.00 64 1023.5
20181214162103 12 316 3.2 9.7 0.00 0.00 0.00 64 1023.5
20181214161900 12 324 4.8 9.7 0.00 0.00 0.00 63 1023.5
20181214161659 12 291 4.8 9.7 0.00 0.00 0.00 63 1023.5
20181214161457 12 306 4.8 9.7 0.00 0.00 0.00 63 1023.5
20181214161256 12 295 4.8 4.8 0.00 0.00 0.00 62 1023.5
20181214161054 12 282 1.6 4.8 0.00 0.00 0.00 63 1023.4
20181214160853 12 286 0.0 8.0 0.00 0.00 0.00 62 1023.4
20181214160651 12 279 3.2 8.0 0.00 0.00 0.00 63 1023.5
20181214160248 -4 310 6.4 6.4 0.00 0.00 0.00 62 1023.5
20181214160047 -1 258 1.6 6.4 0.00 0.00 0.00 62 1023.5
20181214155845 -1 277 0.0 6.4 0.00 0.00 0.00 62 1023.5
20181214155644 -1 274 1.6 6.4 0.00 0.00 0.00 61 1023.5
20181214155442 -1 253 0.0 6.4 0.00 0.00 0.00 61 1023.5
20181214155240 -2 282 1.6 3.2 0.00 0.00 0.00 60 1023.6
20181214155039 -1 279 1.6 3.2 0.00 0.00 0.00 61 1023.6
20181214154837 -1 277 0.0 1.6 0.00 0.00 0.00 61 1023.5
20181214154635 -4 277 0.0 1.6 0.00 0.00 0.00 60 1023.5
20181214154434 -3 267 3.2 1.6 0.00 0.00 0.00 60 1023.5
20181214154232 -3 205 0.0 6.4 0.00 0.00 0.00 62 1023.5
20181214154031 -3 205 0.0 6.4 0.00 0.00 0.00 62 1023.5
20181214153829 -8 300 4.8 9.7 0.00 0.00 0.00 62 1023.6
20181214153628 -6 223 0.0 9.7 0.00 0.00 0.00 62 1023.5
20181214153426 -6 329 0.0 9.7 0.00 0.00 0.00 61 1023.5
20181214153225 -5 267 1.6 11.3 0.00 0.00 0.00 60 1023.5
20181214153023 -7 286 3.2 11.3 0.00 0.00 0.00 61 1023.4
20181214152822 -9 307 4.8 12.9 0.00 0.00 0.00 61 1023.5
20181214152620 12 293 3.2 12.9 0.00 0.00 0.00 61 1023.4
20181214152419 12 289 8.0 12.9 0.00 0.00 0.00 59 1023.4
20181214152217 12 322 3.2 12.9 0.00 0.00 0.00 59 1023.4
20181214152015 12 295 8.0 12.9 0.00 0.00 0.00 59 1023.4
20181214151814 12 286 9.7 11.3 0.00 0.00 0.00 60 1023.4
20181214151612 12 282 8.0 11.3 0.00 0.00 0.00 60 1023.3
20181214151410 12 309 4.8 17.7 0.00 0.00 0.00 58 1023.3
20181214151210 12 296 3.2 17.7 0.00 0.00 0.00 57 1023.3
20181214151007 12 307 9.7 17.7 0.00 0.00 0.00 56 1023.3
20181214150806 12 309 12.9 11.3 0.00 0.00 0.00 55 1023.3
20181214150604 12 293 3.2 11.3 0.00 0.00 0.00 58 1023.2
20181214150403 12 241 0.0 16.1 0.00 0.00 0.00 58 1023.2
20181214150201 12 306 6.4 16.1 0.00 0.00 0.00 59 1023.3
20181214150000 12 284 1.6 16.1 0.00 0.00 0.00 59 1023.3
20181214145758 12 340 4.8 14.5 0.00 0.00 0.00 59 1023.4
20181214145557 12 348 3.2 14.5 0.00 0.00 0.00 58 1023.4
20181214145355 12 320 8.0 20.9 0.00 0.00 0.00 59 1023.4
20181214145154 12 310 8.0 20.9 0.00 0.00 0.00 58 1023.4
20181214144751 12 300 3.2 17.7 0.00 0.00 0.00 60 1023.4
20181214144549 12 265 11.3 17.7 0.00 0.00 0.00 60 1023.5
20181214144347 12 312 11.3 17.7 0.00 0.00 0.00 60 1023.5
20181214144146 12 298 8.0 17.7 0.00 0.00 0.00 62 1023.5
20181214143944 12 326 8.0 17.7 0.00 0.00 0.00 60 1023.6
20181214143742 12 316 8.0 14.5 0.00 0.00 0.00 61 1023.6
20181214143541 -6 322 9.7 14.5 0.00 0.00 0.00 62 1023.6
20181214143339 -6 347 4.8 16.1 0.00 0.00 0.00 61 1023.6
20181214143138 -3 275 4.8 16.1 0.00 0.00 0.00 61 1023.6
20181214142936 -3 316 9.7 16.1 0.00 0.00 0.00 60 1023.5
20181214142735 -3 292 12.9 20.9 0.00 0.00 0.00 59 1023.5
20181214142533 -3 310 11.3 20.9 0.00 0.00 0.00 59 1023.4
20181214142332 -2 303 11.3 16.1 0.00 0.00 0.00 60 1023.4
20181214142130 -2 317 9.7 16.1 0.00 0.00 0.00 60 1023.4
20181214141929 -5 306 4.8 16.1 0.00 0.00 0.00 59 1023.3
20181214141728 -3 292 9.7 17.7 0.00 0.00 0.00 60 1023.2
20181214141526 -3 315 6.4 17.7 0.00 0.00 0.00 60 1023.3
20181214141324 -3 315 6.4 19.3 0.00 0.00 0.00 60 1023.2
20181214141123 -5 299 9.7 19.3 0.00 0.00 0.00 61 1023.3
20181214140921 -4 324 8.0 16.1 0.00 0.00 0.00 60 1023.3
20181214140719 -3 293 12.9 16.1 0.00 0.00 0.00 61 1023.3
20181214140517 -6 302 14.5 16.1 0.00 0.00 0.00 61 1023.4
20181214140316 -6 309 11.3 17.7 0.00 0.00 0.00 62 1023.5
20181214140114 -6 323 6.4 17.7 0.00 0.00 0.00 63 1023.5
20181214135913 -6 289 8.0 19.3 0.00 0.00 0.00 63 1023.5
20181214135711 -7 289 11.3 19.3 0.00 0.00 0.00 64 1023.5
20181214135510 -8 246 0.0 19.3 0.00 0.00 0.00 66 1023.5
20181214135308 -9 317 4.8 19.3 0.00 0.00 0.00 66 1023.5
20181214135107 -8 307 9.7 19.3 0.00 0.00 0.00 66 1023.4
20181214134905 -8 313 16.1 24.1 0.00 0.00 0.00 66 1023.4
20181214134704 -8 324 9.7 24.1 0.00 0.00 0.00 65 1023.4
20181214134502 -8 340 9.7 24.1 0.00 0.00 0.00 65 1023.5
20181214134301 -7 292 19.3 20.9 0.00 0.00 0.00 63 1023.5
20181214134059 -6 300 12.9 20.9 0.00 0.00 0.00 62 1023.5
20181214133857 -7 323 12.9 17.7 0.00 0.00 0.00 64 1023.5
20181214133656 -7 293 17.7 17.7 0.00 0.00 0.00 63 1023.5
20181214133454 -7 306 8.0 17.7 0.00 0.00 0.00 63 1023.6
20181214133253 -8 315 11.3 22.5 0.00 0.00 0.00 64 1023.5
20181214133051 -2 306 11.3 22.5 0.00 0.00 0.00 61 1023.6
20181214132849 -2 300 9.7 17.7 0.00 0.00 0.00 62 1023.5
20181214132648 -2 324 4.8 17.7 0.00 0.00 0.00 64 1023.7
20181214132446 -2 298 8.0 17.7 0.00 0.00 0.00 64 1023.7
20181214132245 -3 320 8.0 22.5 0.00 0.00 0.00 65 1023.7
20181214132043 -2 340 4.8 22.5 0.00 0.00 0.00 64 1023.8
20181214131842 -10 295 12.9 22.5 0.00 0.00 0.00 63 1023.8
20181214131640 -5 291 8.0 22.5 0.00 0.00 0.00 64 1023.8
20181214131439 -5 333 9.7 22.5 0.00 0.00 0.00 62 1023.8
20181214131237 -6 264 16.1 22.5 0.00 0.00 0.00 62 1023.7
20181214131036 -6 0 11.3 22.5 0.00 0.00 0.00 63 1023.7
20181214130834 -5 303 8.0 16.1 0.00 0.00 0.00 64 1023.8
20181214130632 -6 302 16.1 16.1 0.00 0.00 0.00 63 1023.9
20181214130431 -5 307 6.4 16.1 0.00 0.00 0.00 64 1023.9
20181214130230 -6 316 9.7 17.7 0.00 0.00 0.00 65 1023.9
20181214130028 -6 337 11.3 17.7 0.00 0.00 0.00 64 1024.0
20181214125826 -6 275 11.3 12.9 0.00 0.00 0.00 65 1024.0
20181214125624 -6 305 4.8 12.9 0.00 0.00 0.00 67 1024.0
20181214125423 -16 316 0.0 12.9 0.00 0.00 0.00 67 1024.1
20181214125221 -16 313 8.0 9.7 0.00 0.00 0.00 67 1024.2
20181214125020 -15 299 6.4 9.7 0.00 0.00 0.00 68 1024.2
20181214124818 -17 323 3.2 6.4 0.00 0.00 0.00 70 1024.4
20181214124617 -47 319 4.8 6.4 0.00 0.00 0.00 69 1024.2
20181214124415 11 307 1.6 11.3 0.00 0.00 0.00 70 1024.2
20181214124214 11 305 0.0 11.3 0.00 0.00 0.00 71 1024.4
20181214124012 11 305 0.0 11.3 0.00 0.00 0.00 72 1024.5
20181214123811 11 316 6.4 9.7 0.00 0.00 0.00 73 1024.5
20181214123609 11 317 4.8 9.7 0.00 0.00 0.00 73 1024.5
20181214123408 11 270 3.2 11.3 0.00 0.00 0.00 74 1024.5
20181214123206 11 313 6.4 11.3 0.00 0.00 0.00 76 1024.6
20181214123004 11 299 4.8 11.3 0.00 0.00 0.00 77 1024.7
20181214122803 11 293 9.7 12.9 0.00 0.00 0.00 76 1024.8
20181214122602 11 289 3.2 12.9 0.00 0.00 0.00 76 1024.8
20181214122359 11 306 4.8 8.0 0.00 0.00 0.00 75 1024.8
20181214122158 11 305 4.8 8.0 0.00 0.00 0.00 75 1024.9
20181214121956 11 299 4.8 8.0 0.00 0.00 0.00 75 1024.9
20181214121755 11 309 4.8 8.0 0.00 0.00 0.00 74 1024.9
20181214121553 11 319 4.8 8.0 0.00 0.00 0.00 72 1024.9
20181214121352 11 334 1.6 8.0 0.00 0.00 0.00 72 1024.9
20181214121150 11 303 4.8 8.0 0.00 0.00 0.00 71 1024.9
20181214120949 11 344 4.8 8.0 0.00 0.00 0.00 72 1024.9
20181214120747 11 351 4.8 12.9 0.00 0.00 0.00 73 1025.0
20181214120546 11 315 3.2 12.9 0.00 0.00 0.00 73 1025.0
20181214120343 11 309 8.0 12.9 0.00 0.00 0.00 74 1025.0
20181214120143 11 324 4.8 12.9 0.00 0.00 0.00 73 1025.0
20181214115940 11 317 9.7 12.9 0.00 0.00 0.00 71 1025.1
20181214115738 11 275 8.0 4.8 0.00 0.00 0.00 71 1025.0
20181214115537 11 303 3.2 4.8 0.00 0.00 0.00 71 1025.1
20181214115335 11 248 0.0 4.8 0.00 0.00 0.00 73 1025.1
20181214115133 11 310 0.0 4.8 0.00 0.00 0.00 73 1025.2
20181214114932 11 310 0.0 4.8 0.00 0.00 0.00 73 1025.2
20181214114731 11 298 0.0 3.2 0.00 0.00 0.00 72 1025.2
20181214114529 11 251 0.0 3.2 0.00 0.00 0.00 75 1025.2
20181214114327 11 299 0.0 0.0 0.00 0.00 0.00 75 1025.2
20181214114126 11 345 0.0 0.0 0.00 0.00 0.00 76 1025.2
20181214113924 11 345 0.0 0.0 0.00 0.00 0.00 78 1025.2
20181214113723 11 345 0.0 0.0 0.00 0.00 0.00 77 1025.4
20181214113521 11 345 0.0 0.0 0.00 0.00 0.00 78 1025.3
20181214113320 11 345 0.0 0.0 0.00 0.00 0.00 79 1025.3
20181214113118 11 345 0.0 0.0 0.00 0.00 0.00 78 1025.5
20181214112917 11 345 0.0 4.8 0.00 0.00 0.00 80 1025.5
20181214112715 11 345 0.0 4.8 0.00 0.00 0.00 81 1025.4
20181214112514 11 345 0.0 4.8 0.00 0.00 0.00 81 1025.4
20181214112312 11 244 1.6 1.6 0.00 0.00 0.00 83 1025.4
20181214112111 11 244 0.0 1.6 0.00 0.00 0.00 84 1025.5
20181214111909 11 234 0.0 0.0 0.00 0.00 0.00 84 1025.5
20181214111707 11 215 0.0 0.0 0.00 0.00 0.00 86 1025.5
20181214111505 11 265 0.0 0.0 0.00 0.00 0.00 87 1025.4
20181214111304 11 265 0.0 6.4 0.00 0.00 0.00 88 1025.5
20181214111102 11 234 0.0 6.4 0.00 0.00 0.00 89 1025.4
20181214110901 11 202 0.0 4.8 0.00 0.00 0.00 90 1025.4
20181214110659 11 201 1.6 4.8 0.00 0.00 0.00 91 1025.5
20181214110458 11 230 0.0 4.8 0.00 0.00 0.00 91 1025.5
20181214110256 11 213 0.0 0.0 0.00 0.00 0.00 93 1025.5
20181214110055 8 213 0.0 0.0 0.00 0.00 0.00 94 1025.4
20181214105853 11 213 0.0 1.6 0.00 0.00 0.00 94 1025.4
20181214105652 11 213 0.0 1.6 0.00 0.00 0.00 94 1025.4
20181214105450 11 223 0.0 1.6 0.00 0.00 0.00 94 1025.3
20181214105249 11 223 0.0 0.0 0.00 0.00 0.00 94 1025.3
20181214105047 11 223 0.0 0.0 0.00 0.00 0.00 94 1025.4
20181214104845 11 267 0.0 0.0 0.00 0.00 0.00 94 1025.3
20181214104644 11 267 0.0 0.0 0.00 0.00 0.00 94 1025.3
20181214104443 8 267 0.0 0.0 0.00 0.00 0.00 94 1025.4
20181214104240 8 267 0.0 3.2 0.00 0.00 0.00 95 1025.4
20181214104039 8 267 0.0 3.2 0.00 0.00 0.00 95 1025.4
20181214103837 8 267 0.0 1.6 0.00 0.00 0.00 95 1025.4
20181214103636 8 236 0.0 1.6 0.00 0.00 0.00 95 1025.4
20181214103434 8 234 0.0 1.6 0.00 0.00 0.00 95 1025.3
20181214103233 8 210 0.0 0.0 0.00 0.00 0.00 95 1025.4
20181214103031 8 210 0.0 0.0 0.00 0.00 0.00 95 1025.3
20181214102830 8 210 0.0 3.2 0.00 0.00 0.00 95 1025.2
20181214102628 8 210 0.0 3.2 0.00 0.00 0.00 95 1025.2
20181214102427 8 189 1.6 3.2 0.00 0.00 0.00 95 1025.2
20181214102225 8 195 3.2 4.8 0.00 0.00 0.00 95 1025.1
20181214102024 8 149 0.0 4.8 0.00 0.00 0.00 95 1025.2
20181214101822 8 122 0.0 4.8 0.00 0.00 0.00 95 1025.2
20181214101621 8 168 3.2 4.8 0.00 0.00 0.00 95 1025.1
20181214101421 8 189 3.2 4.8 0.00 0.00 0.00 95 1025.1
20181214101217 8 175 3.2 4.8 0.00 0.00 0.00 95 1025.1
20181214101016 8 167 1.6 4.8 0.00 0.00 0.00 95 1025.1
20181214100814 8 165 1.6 6.4 0.00 0.00 0.00 95 1025.2
20181214100612 8 177 0.0 6.4 0.00 0.00 0.00 95 1025.2
20181214100411 8 184 3.2 4.8 0.00 0.00 0.00 96 1025.3
20181214100209 8 174 3.2 4.8 0.00 0.00 0.00 96 1025.3
20181214100008 8 203 1.6 4.8 0.00 0.00 0.00 96 1025.3
20181214095806 8 184 1.6 4.8 0.00 0.00 0.00 96 1025.3
20181214095605 8 201 3.2 4.8 0.00 0.00 0.00 96 1025.1
20181214095403 8 194 1.6 6.4 0.00 0.00 0.00 96 1025.0
20181214095202 8 201 3.2 6.4 0.00 0.00 0.00 96 1025.2
20181214095000 8 192 0.0 6.4 0.00 0.00 0.00 95 1025.2
20181214094759 8 216 4.8 4.8 0.00 0.00 0.00 95 1025.0
20181214094557 8 191 4.8 4.8 0.00 0.00 0.00 96 1024.7
20181214094356 8 177 3.2 4.8 0.00 0.00 0.00 96 1025.0
20181214094154 8 191 0.0 4.8 0.00 0.00 0.00 96 1025.3
20181214093953 8 257 1.6 4.8 0.00 0.00 0.00 96 1025.4
20181214093751 8 255 0.0 6.4 0.00 0.00 0.00 96 1025.3
20181214093549 8 232 0.0 6.4 0.00 0.00 0.00 96 1025.2
20181214093348 8 232 0.0 6.4 0.00 0.00 0.00 96 1025.2
20181214093146 8 226 1.6 6.4 0.00 0.00 0.00 96 1025.1
20181214092944 8 232 6.4 6.4 0.00 0.00 0.00 96 1025.1
20181214092743 8 230 3.2 6.4 0.00 0.00 0.00 96 1025.0
20181214092542 8 212 1.6 6.4 0.00 0.00 0.00 96 1025.0
20181214092340 8 240 1.6 4.8 0.00 0.00 0.00 96 1024.9
20181214092138 8 223 6.4 4.8 0.00 0.00 0.00 96 1024.9
20181214091937 8 219 3.2 4.8 0.00 0.00 0.00 96 1024.8
20181214091735 8 220 0.0 4.8 0.00 0.00 0.00 96 1024.7
20181214091534 8 227 0.0 4.8 0.00 0.00 0.00 96 1024.7
20181214091332 8 209 4.8 0.0 0.00 0.00 0.00 96 1024.7
20181214091131 8 216 1.6 0.0 0.00 0.00 0.00 96 1024.6
20181214090929 8 50 0.0 0.0 0.00 0.00 0.00 96 1024.6
20181214090727 8 50 0.0 0.0 0.00 0.00 0.00 96 1024.6
20181214090526 8 50 0.0 0.0 0.00 0.00 0.00 96 1024.5
20181214090324 8 50 0.0 0.0 0.00 0.00 0.00 96 1024.4
20181214090123 8 50 0.0 0.0 0.00 0.00 0.00 96 1024.4
20181214085922 8 50 0.0 0.0 0.00 0.00 0.00 96 1024.2
20181214085719 8 50 0.0 0.0 0.00 0.00 0.00 96 1024.1
20181214085518 8 50 0.0 0.0 0.00 0.00 0.00 96 1024.2
20181214085316 8 50 0.0 0.0 0.00 0.00 0.00 96 1024.1
20181214085115 8 50 0.0 0.0 0.00 0.00 0.00 96 1024.1
20181214084913 8 50 0.0 0.0 0.00 0.00 0.00 96 1024.0
20181214084712 8 50 0.0 0.0 0.00 0.00 0.00 96 1023.9
20181214084510 8 50 0.0 0.0 0.00 0.00 0.00 96 1024.0
20181214084309 8 50 0.0 0.0 0.00 0.00 0.00 96 1024.0
20181214084107 8 50 0.0 0.0 0.00 0.00 0.00 96 1024.0
20181214083906 8 50 0.0 0.0 0.00 0.00 0.00 96 1024.0
20181214083704 8 50 0.0 0.0 0.00 0.00 0.00 96 1024.0
20181214083503 8 50 0.0 0.0 0.00 0.00 0.00 96 1023.9
20181214083301 8 50 0.0 1.6 0.00 0.00 0.00 96 1024.0
20181214083059 8 50 0.0 1.6 0.00 0.00 0.00 96 1023.9
20181214082858 8 50 0.0 1.6 0.00 0.00 0.00 96 1024.0
20181214082656 8 50 0.0 1.6 0.00 0.00 0.00 96 1023.9
20181214082454 8 324 0.0 1.6 0.00 0.00 0.00 96 1023.9
20181214082253 8 324 0.0 0.0 0.00 0.00 0.00 96 1023.9
20181214082051 8 324 0.0 0.0 0.00 0.00 0.00 96 1023.9
20181214081850 8 324 0.0 0.0 0.00 0.00 0.00 96 1023.8
20181214081648 8 324 0.0 0.0 0.00 0.00 0.00 96 1023.8
20181214081447 8 324 0.0 0.0 0.00 0.00 0.00 96 1023.9
20181214081245 8 324 0.0 0.0 0.00 0.00 0.00 96 1024.0
20181214081044 8 324 0.0 0.0 0.00 0.00 0.00 96 1023.9
20181214080842 8 324 0.0 0.0 0.00 0.00 0.00 96 1023.9
20181214080641 8 324 0.0 0.0 0.00 0.00 0.00 96 1023.8
20181214080440 8 324 0.0 0.0 0.00 0.00 0.00 96 1023.9
20181214080238 8 324 0.0 0.0 0.00 0.00 0.00 96 1023.8
20181214080036 8 324 0.0 0.0 0.00 0.00 0.00 96 1023.8
20181214075834 8 324 0.0 0.0 0.00 0.00 0.00 96 1023.7
20181214075633 8 324 0.0 0.0 0.00 0.00 0.00 96 1023.6
20181214075431 8 324 0.0 0.0 0.00 0.00 0.00 96 1023.6
20181214075230 8 324 0.0 0.0 0.00 0.00 0.00 96 1023.5
20181214075028 8 324 0.0 0.0 0.00 0.00 0.00 96 1023.5
20181214074826 8 324 0.0 0.0 0.00 0.00 0.00 96 1023.5
20181214074625 8 324 0.0 0.0 0.00 0.00 0.00 96 1023.5
20181214074423 8 324 0.0 0.0 0.00 0.00 0.00 96 1023.5
20181214074222 8 324 0.0 0.0 0.00 0.00 0.00 96 1023.6
20181214074020 8 324 0.0 0.0 0.00 0.00 0.00 96 1023.6
20181214073819 8 324 0.0 0.0 0.00 0.00 0.00 96 1023.6
20181214073617 8 324 0.0 0.0 0.00 0.00 0.00 96 1023.5
20181214073416 8 324 0.0 0.0 0.00 0.00 0.00 96 1023.5
20181214073214 8 324 0.0 0.0 0.00 0.00 0.00 96 1023.4
20181214073013 8 324 0.0 0.0 0.00 0.00 0.00 96 1023.4
20181214072811 8 324 0.0 0.0 0.00 0.00 0.00 96 1023.3
20181214072609 8 324 0.0 0.0 0.00 0.00 0.00 96 1023.3
20181214072408 8 324 0.0 0.0 0.00 0.00 0.00 96 1023.3
20181214072206 8 324 0.0 0.0 0.00 0.00 0.00 96 1023.3
20181214072005 8 324 0.0 0.0 0.00 0.00 0.00 96 1023.2
20181214071803 8 324 0.0 0.0 0.00 0.00 0.00 96 1023.2
20181214071601 8 324 0.0 0.0 0.00 0.00 0.00 96 1023.1
20181214071400 8 324 0.0 0.0 0.00 0.00 0.00 96 1023.2
20181214071158 8 324 0.0 0.0 0.00 0.00 0.00 96 1023.2
20181214070957 8 324 0.0 0.0 0.00 0.00 0.00 96 1023.2
20181214070755 8 324 0.0 0.0 0.00 0.00 0.00 96 1023.1
20181214070554 8 324 0.0 0.0 0.00 0.00 0.00 96 1023.1
20181214070352 8 324 0.0 0.0 0.00 0.00 0.00 96 1023.1
20181214070152 8 324 0.0 0.0 0.00 0.00 0.00 96 1023.0
20181214065949 8 324 0.0 0.0 0.00 0.00 0.00 96 1023.0
20181214065748 8 324 0.0 0.0 0.00 0.00 0.00 96 1023.0
20181214065546 8 324 0.0 0.0 0.00 0.00 0.00 96 1022.9
20181214065344 8 324 0.0 0.0 0.00 0.00 0.00 96 1022.8
20181214065142 8 324 0.0 0.0 0.00 0.00 0.00 96 1022.8
20181214064940 8 324 0.0 0.0 0.00 0.00 0.00 96 1022.8
20181214064739 8 324 0.0 3.2 0.00 0.00 0.00 96 1022.7
20181214064537 8 324 0.0 3.2 0.00 0.00 0.00 96 1022.8
20181214064335 8 324 0.0 0.0 0.00 0.00 0.00 96 1022.6
20181214064134 8 312 0.0 0.0 0.00 0.00 0.00 96 1022.6
20181214063932 8 312 0.0 0.0 0.00 0.00 0.00 96 1022.5
20181214063731 8 312 0.0 4.8 0.00 0.00 0.00 96 1022.6
20181214063529 8 312 0.0 4.8 0.00 0.00 0.00 96 1022.7
20181214063328 8 315 1.6 4.8 0.00 0.00 0.00 96 1022.7
20181214063126 8 324 1.6 4.8 0.00 0.00 0.00 96 1022.7
20181214062925 8 322 1.6 4.8 0.00 0.00 0.00 96 1022.7
20181214062723 8 295 1.6 3.2 0.00 0.00 0.00 96 1022.6
20181214062522 8 315 1.6 3.2 0.00 0.00 0.00 96 1022.5
20181214062320 8 307 1.6 3.2 0.00 0.00 0.00 96 1022.4
20181214062119 8 306 0.0 3.2 0.00 0.00 0.00 96 1022.4
20181214061917 8 274 0.0 6.4 0.00 0.00 0.00 96 1022.4
20181214061715 8 241 0.0 6.4 0.00 0.00 0.00 97 1022.4
20181214061514 8 310 0.0 6.4 0.00 0.00 0.00 97 1022.3
20181214061312 8 310 0.0 6.4 0.00 0.00 0.00 97 1022.3
20181214061111 8 327 1.6 6.4 0.00 0.00 0.00 97 1022.2
20181214060909 8 309 4.8 6.4 0.00 0.00 0.00 97 1022.2
20181214060707 8 319 3.2 6.4 0.00 0.00 0.00 97 1022.2
20181214060506 8 300 4.8 6.4 0.00 0.00 0.00 97 1022.1
20181214060304 8 288 0.0 0.0 0.00 0.00 0.00 97 1022.1
20181214060103 8 25 0.0 0.0 0.00 0.00 0.00 97 1022.1
20181214055901 8 25 0.0 0.0 0.00 0.00 0.00 97 1022.0
20181214055700 8 25 0.0 0.0 0.00 0.00 0.00 97 1022.0
20181214055458 8 25 0.0 0.0 0.00 0.00 0.00 97 1021.9
20181214055257 8 25 0.0 0.0 0.00 0.00 0.00 97 1021.9
20181214055055 8 25 0.0 0.0 0.00 0.00 0.00 97 1021.9
20181214054854 8 25 0.0 3.2 0.00 0.00 0.00 97 1021.9
20181214054652 8 25 0.0 3.2 0.00 0.00 0.00 97 1022.0
20181214054451 8 25 0.0 3.2 0.00 0.00 0.00 97 1022.2
20181214054249 8 25 0.0 0.0 0.00 0.00 0.00 97 1022.2
20181214054047 8 264 0.0 0.0 0.00 0.00 0.00 97 1022.1
20181214053845 8 264 0.0 0.0 0.00 0.00 0.00 97 1022.0
20181214053644 8 264 0.0 0.0 0.00 0.00 0.00 97 1021.9
20181214053442 8 264 0.0 0.0 0.00 0.00 0.00 97 1021.9
20181214053241 8 264 0.0 0.0 0.00 0.00 0.00 97 1021.9
20181214053039 8 264 0.0 0.0 0.00 0.00 0.00 97 1021.8
20181214052838 8 264 0.0 0.0 0.00 0.00 0.00 97 1021.8
20181214052636 8 264 0.0 0.0 0.00 0.00 0.00 97 1021.8
20181214052435 8 264 0.0 0.0 0.00 0.00 0.00 97 1021.8
20181214052233 8 264 0.0 0.0 0.00 0.00 0.00 97 1021.7
20181214052032 8 264 0.0 0.0 0.00 0.00 0.00 97 1021.6
20181214051830 8 264 0.0 4.8 0.00 0.00 0.00 97 1021.6
20181214051629 8 260 0.0 4.8 0.00 0.00 0.00 97 1021.7
20181214051427 8 260 0.0 4.8 0.00 0.00 0.00 97 1021.7
20181214051226 8 298 1.6 4.8 0.00 0.00 0.00 97 1021.7
20181214051024 12 309 3.2 4.8 0.00 0.00 0.00 97 1021.7
20181214050822 -24 305 0.0 8.0 0.00 0.00 0.00 97 1021.7
20181214050621 -22 288 1.6 8.0 0.00 0.00 0.00 97 1021.7
20181214050419 -21 303 3.2 12.9 0.00 0.00 0.00 97 1021.7
20181214050218 -24 336 3.2 12.9 0.00 0.00 0.00 97 1021.6
20181214050016 -26 254 1.6 12.9 0.00 0.00 0.00 97 1021.6
20181214045814 -28 305 4.8 11.3 0.00 0.00 0.00 97 1021.6
20181214045613 -35 309 6.4 11.3 0.00 0.00 0.00 97 1021.7
20181214045411 -27 317 6.4 11.3 0.00 0.00 0.00 97 1021.7
20181214045210 -26 316 6.4 11.3 0.00 0.00 0.00 97 1021.5
20181214045008 -30 298 9.7 11.3 0.00 0.00 0.00 97 1021.4
20181214044807 -20 300 8.0 14.5 0.00 0.00 0.00 97 1021.4
20181214044605 -20 319 8.0 14.5 0.00 0.00 0.00 97 1021.2
20181214044404 -20 312 9.7 16.1 0.00 0.00 0.00 97 1021.3
20181214044202 -18 306 11.3 16.1 0.00 0.00 0.00 97 1021.2
20181214044001 -20 302 9.7 16.1 0.00 0.00 0.00 97 1021.2
20181214043759 -21 298 11.3 12.9 0.00 0.00 0.00 97 1021.3
20181214043557 -21 306 9.7 12.9 0.00 0.00 0.00 97 1021.2
20181214043356 -20 288 12.9 16.1 0.00 0.00 0.00 97 1021.2
20181214043154 -21 313 11.3 16.1 0.00 0.00 0.00 97 1021.1
20181214042952 -21 313 8.0 16.1 0.00 0.00 0.00 97 1021.1
20181214042751 -21 319 9.7 16.1 0.00 0.00 0.00 97 1021.2
20181214042549 -22 327 11.3 16.1 0.00 0.00 0.00 97 1021.3
20181214042348 -22 334 11.3 16.1 0.00 0.00 0.00 97 1021.3
20181214042146 -22 303 11.3 16.1 0.00 0.00 0.00 97 1021.3
20181214041945 -21 298 11.3 16.1 0.00 0.00 0.00 97 1021.4
20181214041743 -21 316 12.9 19.3 0.00 0.00 0.00 97 1021.3
20181214041542 -20 322 11.3 19.3 0.00 0.00 0.00 97 1021.4
20181214041340 -18 310 11.3 17.7 0.00 0.00 0.00 97 1021.5
20181214041139 -18 307 14.5 17.7 0.00 0.00 0.00 97 1021.4
20181214040937 -19 336 11.3 17.7 0.00 0.00 0.00 97 1021.3
20181214040736 -22 302 11.3 19.3 0.00 0.00 0.00 97 1021.4
20181214040534 -18 309 9.7 19.3 0.00 0.00 0.00 97 1021.4
20181214040332 -20 309 9.7 16.1 0.00 0.00 0.00 97 1021.3
20181214040131 -19 317 8.0 16.1 0.00 0.00 0.00 97 1021.3
20181214035929 -20 306 8.0 16.1 0.00 0.00 0.00 97 1021.4
20181214035728 -19 281 8.0 16.1 0.00 0.00 0.00 98 1021.4
20181214035526 -27 303 14.5 16.1 0.00 0.00 0.00 98 1021.3
20181214035324 -25 295 12.9 17.7 0.00 0.00 0.00 98 1021.4
20181214035123 -25 254 9.7 17.7 0.00 0.00 0.00 98 1021.4
20181214034921 -27 267 11.3 16.1 0.00 0.00 0.00 98 1021.4
20181214034720 -26 289 9.7 16.1 0.00 0.00 0.00 98 1021.4
20181214034518 -26 279 11.3 16.1 0.00 0.00 0.00 98 1021.3
20181214034317 -25 300 9.7 14.5 0.00 0.00 0.00 98 1021.4
20181214034115 -19 295 11.3 14.5 0.00 0.00 0.00 98 1021.3
20181214033914 -20 281 11.3 14.5 0.00 0.00 0.00 98 1021.3
20181214033712 -18 310 9.7 14.5 0.00 0.00 0.00 98 1021.2
20181214033511 -17 292 8.0 14.5 0.00 0.00 0.00 98 1021.2
20181214033309 -18 286 12.9 11.3 0.00 0.00 0.00 98 1021.2
20181214033108 -22 300 6.4 11.3 0.00 0.00 0.00 98 1021.1
20181214032906 -22 258 4.8 11.3 0.00 0.00 0.00 98 1021.0
20181214032704 -22 298 6.4 11.3 0.00 0.00 0.00 98 1021.0
20181214032502 -22 272 4.8 11.3 0.00 0.00 0.00 98 1021.1
20181214032301 -22 278 4.8 6.4 0.00 0.00 0.00 98 1021.1
20181214032059 -22 254 3.2 6.4 0.00 0.00 0.00 97 1021.2
20181214031858 -23 288 3.2 9.7 0.00 0.00 0.00 97 1021.2
20181214031656 -25 285 1.6 9.7 0.00 0.00 0.00 97 1021.3
20181214031455 -24 270 1.6 9.7 0.00 0.00 0.00 97 1021.3
20181214031253 -19 278 9.7 9.7 0.00 0.00 0.00 97 1021.4
20181214031052 -20 293 6.4 9.7 0.00 0.00 0.00 97 1021.4
20181214030850 -18 298 6.4 6.4 0.00 0.00 0.00 97 1021.5
20181214030649 -18 292 8.0 6.4 0.00 0.00 0.00 97 1021.4
20181214030447 -22 296 1.6 6.4 0.00 0.00 0.00 97 1021.4
20181214030246 -24 258 4.8 6.4 0.00 0.00 0.00 97 1021.4
20181214030044 -20 260 0.0 6.4 0.00 0.00 0.00 97 1021.3
20181214025843 -18 298 3.2 3.2 0.00 0.00 0.00 97 1021.4
20181214025641 -17 289 1.6 3.2 0.00 0.00 0.00 97 1021.3
20181214025439 -17 270 1.6 3.2 0.00 0.00 0.00 97 1021.3
20181214025238 -16 275 0.0 1.6 0.00 0.00 0.00 97 1021.2
20181214025036 -16 267 0.0 1.6 0.00 0.00 0.00 97 1021.2
20181214024834 -16 279 0.0 0.0 0.00 0.00 0.00 97 1021.2
20181214024633 -17 226 0.0 0.0 0.00 0.00 0.00 97 1021.2
20181214024431 -17 230 0.0 0.0 0.00 0.00 0.00 97 1021.2
20181214024230 -18 270 0.0 0.0 0.00 0.00 0.00 97 1021.3
20181214024028 -18 270 0.0 0.0 0.00 0.00 0.00 97 1021.2
20181214023827 -20 270 0.0 4.8 0.00 0.00 0.00 96 1021.2
20181214023625 -18 270 0.0 4.8 0.00 0.00 0.00 96 1021.3